Weather in Spasskoe

Russia / Stavropol Krai     45°04′27″N   43°41′32″E
temp.,
°C
wind,
m/s
gust,
m/s
humid.,
%
clouds,
%
prec.,
mm/h
press.,
hPa
HPBL,
m
11 may, tue
tue1100:00+7ssw486699 0.0 1018182
03:00+6ssw597658 0.0 1018224
06:00+7s51178100 0.0 1018393
09:00+12sse71053100 0.0 10171181
12:00+14se7946100 0.0 10161571
15:00+16ese5942100 0.0 10152051
18:00+14e71254100 0.0 1015502
21:00+11ese71355100 0.0 1016401
12 may, wed
wed1200:00+8ese4117335 0.0 1016226
03:00+7se228613 0.0 101712
06:00+9e017961 0.0 101742
09:00+15ene346970 0.0 1017900
12:00+17e4560100 0.0 10161326
15:00+18ene555959 0.1 10161040
18:00+18e47645 0.0 1015358
21:00+13e47820 0.0 1015101
13 may, thu
thu1300:00+13ese359111 0.0 101474
03:00+11se22880 0.0 101419
06:00+12ese23804 0.0 1014102
09:00+19se34590 0.0 1014541
12:00+23ese44500 0.0 10141063
15:00+25ese45451 0.0 10141237
18:00+23ese355675 0.0 1014107
21:00+18ese346523 0.0 101445
14 may, fri
fri1400:00+15ese34670 0.0 101355
03:00+13se337816 0.0 101440
06:00+14ese36835 0.0 1014156
09:00+20se345974 0.0 1013467
12:00+25ese44480 0.0 1012780
15:00+28ese45410 0.0 1011990
18:00+26se24560 0.0 101169
21:00+19ese411600 0.0 1012204
15 may, sat
sat1500:00+16ese496494 0.0 1012152
03:00+15ese354823 0.0 101271
06:00+15ese23518 0.0 101369
09:00+21sse014580 0.0 1013358
12:00+26nnw224277 0.0 1013828
15:00+29n23400 0.0 10121276
18:00+27nne11501 0.0 101119
21:00+21n1258100 0.0 101214